Flag for Germany Weather past 2 weeks in Gütersloh, North Rhine-Westphalia, Germany

Now
55 °F

Overcast.


Feels Like: 55 °F
Forecast: 48 / 64 °F
Wind: 1 mph from Northeast

Location: Bad Lippspringe

Current Time: Sep 3, 2015 at 9:41:06 PM

Latest Report: Sep 3, 2015 at 9:00 PM


Visibility: 6 mi

Pressure: 29.95 "Hg

Humidity: 91%

Dew point: 52 °F

Location of GüterslohLocation

Historic Weather in Gütersloh — Graph

°F

Gütersloh temperature yesterday

Maximum temperature yesterday: 65 °F (at 3:00 PM)
Minimum temperature yesterday: 51 °F (at 7:00 AM)
Average temperature yesterday: 57 °F

Past Weeks' High & Low Weather Summary

 TemperatureHumidityPressure
High90 °F (Aug 31, 4:00 PM)100% (Aug 29, 4:00 AM)30.27 "Hg (Aug 29, 4:00 AM)
Low49 °F (Aug 29, 6:00 AM)27% (Aug 31, 4:00 PM)29.59 "Hg (Aug 24, 6:00 PM)
Average66 °F71%29.98 "Hg
* Reported Aug 19 8:00 PM — Sep 3 8:00 PM, Gütersloh, Weather by CustomWeather, © 2015

Note: Actual official high and low records may vary slightly from our data, if they occured in-between our weather recording intervals... More about our weather records

Advertising

Gütersloh weather history for previous 24 hours

 ConditionsComfort  
Time TempWeatherWind HumidityBarometerVisibility
8:00 PM
Thu, Sep 3
58 °FSunny.1 mph79%29.93 "Hg7 mi
7:00 PM61 °FSunny.2 mph65%29.92 "Hg9 mi
6:00 PM63 °FPassing clouds.5 mph55%29.92 "Hg11 mi
5:00 PM63 °FSunny.2 mph58%29.92 "Hg19 mi
4:00 PM58 °FLight rain. Overcast.8 mph72%29.94 "Hg4 mi
3:00 PM64 °FPassing clouds.3 mph53%29.92 "Hg9 mi
2:00 PM63 °FScattered clouds.3 mph59%29.93 "Hg7 mi
1:00 PM62 °FOvercast.2 mph67%29.94 "Hg8 mi
12:00 PM61 °FScattered clouds.2 mph69%29.96 "Hg5 mi
11:00 AM58 °FFog.2 mph80%29.96 "Hg3 mi
10:00 AM56 °FFog.1 mph93%29.97 "Hg2 mi
9:00 AM55 °FLow clouds.1 mph92%29.96 "Hg3 mi
8:00 AM54 °FLow clouds.1 mph94%29.97 "Hg2 mi
7:00 AM53 °FFog.1 mph99%29.96 "Hg2 mi
5:00 AM51 °FDrizzle. Overcast.No wind100%29.97 "Hg1 mi
4:00 AM50 °FOvercast.No wind100%29.98 "Hg1 mi
3:00 AM50 °FOvercast.1 mph100%29.99 "Hg2 mi
2:00 AM49 °FFog.1 mph99%29.99 "Hg1 mi
1:00 AM51 °FFog.1 mph99%29.99 "Hg1 mi
11:00 PM
Wed, Sep 2
54 °FOvercast.1 mph94%30.00 "Hg5 mi
10:00 PM54 °FOvercast.2 mph92%30.01 "Hg7 mi
9:00 PM54 °FOvercast.1 mph93%30.01 "Hg6 mi
Weather by CustomWeather, © 2015

See weather overviewHow to use our weather pages